Terminal Aerodrome Forecast
Issued by NWS

Home | Current Version | Previous Version | Text Only | Print | Product List | Glossary On
Versions: 1 2 3 4 5 6 7 8 9 10 11 12 13 14 15 16 17 18 19 20 21 22 23 24 25 26 27
000
FTUS45 KBYZ 220520
TAFLVM
TAF
KLVM 220520Z 2206/2306 25018G28KT P6SM BKN070
     FM221500 28020G32KT P6SM BKN080
     FM222300 26014KT P6SM SCT080 BKN200=

USA.gov is the U.S. government's official web portal to all federal, state and local government web resources and services.